| time (UTC) | temp C | wind direction | speed KPH | gust KPH | rain 1hr cm | rain 24hr cm | rain mn cm | humidity % | barometer mb |
| 20260509121023 | 8 | 0.0 | 0.0 | 0.00 | 0.00 | 0.00 | 66 | 1014.7 | |
| 20260509120027 | 8 | 0.0 | 0.0 | 0.00 | 0.00 | 0.00 | 68 | 1014.7 | |
| 20260509115030 | 7 | 0.0 | 0.0 | 0.00 | 0.00 | 0.00 | 69 | 1014.8 | |
| 20260509114015 | 7 | 0.0 | 0.0 | 0.00 | 0.00 | 0.00 | 70 | 1014.8 | |
| 20260509113059 | 7 | 0.0 | 0.0 | 0.00 | 0.00 | 0.00 | 72 | 1014.8 | |
| 20260509112022 | 6 | 0.0 | 0.0 | 0.00 | 0.00 | 0.00 | 73 | 1014.9 | |
| 20260509111025 | 5 | 0.0 | 0.0 | 0.00 | 0.00 | 0.00 | 73 | 1014.8 | |
| 20260509110029 | 5 | 0.0 | 0.0 | 0.00 | 0.00 | 0.00 | 74 | 1014.8 | |
| 20260509105112 | 4 | 0.0 | 0.0 | 0.00 | 0.00 | 0.00 | 75 | 1014.8 | |
| 20260509104037 | 3 | 0.0 | 0.0 | 0.00 | 0.00 | 0.00 | 75 | 1014.8 | |
| 20260509103021 | 3 | 0.0 | 0.0 | 0.00 | 0.00 | 0.00 | 75 | 1014.7 | |
| 20260509102023 | 3 | 0.0 | 0.0 | 0.00 | 0.00 | 0.00 | 76 | 1014.5 | |
| 20260509101027 | 2 | 0.0 | 0.0 | 0.00 | 0.00 | 0.00 | 76 | 1014.4 | |
| 20260509100030 | 2 | 0.0 | 0.0 | 0.00 | 0.00 | 0.00 | 76 | 1014.2 | |
| 20260509095035 | 1 | 0.0 | 0.0 | 0.00 | 0.00 | 0.00 | 76 | 1014.1 | |
| 20260509094039 | 1 | 0.0 | 0.0 | 0.00 | 0.00 | 0.00 | 76 | 1014.1 | |
| 20260509093022 | 1 | 0.0 | 0.0 | 0.00 | 0.00 | 0.00 | 76 | 1014.2 | |
| 20260509092019 | 1 | 0.0 | 0.0 | 0.00 | 0.00 | 0.00 | 76 | 1014.1 | |
| 20260509091016 | 1 | 0.0 | 0.0 | 0.00 | 0.00 | 0.00 | 76 | 1015.4 | |
| 20260509090032 | 1 | 0.0 | 0.0 | 0.00 | 0.00 | 0.00 | 76 | 1013.9 | |
| 20260509085016 | 1 | 0.0 | 0.0 | 0.00 | 0.00 | 0.00 | 75 | 1013.7 | |
| 20260509084020 | 1 | 0.0 | 0.0 | 0.00 | 0.00 | 0.00 | 75 | 1013.7 | |
| 20260509083023 | 1 | 0.0 | 0.0 | 0.00 | 0.00 | 0.00 | 75 | 1013.7 | |
| 20260509082027 | 1 | 0.0 | 0.0 | 0.00 | 0.00 | 0.00 | 75 | 1013.7 | |
| 20260509081030 | 2 | 0.0 | 0.0 | 0.00 | 0.00 | 0.00 | 75 | 1013.7 | |
| 20260509080015 | 1 | 0.0 | 0.0 | 0.00 | 0.00 | 0.00 | 74 | 1013.8 | |
| 20260509075039 | 2 | 0.0 | 0.0 | 0.00 | 0.00 | 0.00 | 74 | 1013.6 | |
| 20260509074022 | 2 | 0.0 | 0.0 | 0.00 | 0.00 | 0.00 | 74 | 1013.5 | |
| 20260509073045 | 2 | 0.0 | 0.0 | 0.00 | 0.00 | 0.00 | 74 | 1013.5 | |
| 20260509072049 | 2 | 0.0 | 0.0 | 0.00 | 0.00 | 0.00 | 73 | 1013.5 | |
| 20260509071032 | 2 | 0.0 | 0.0 | 0.00 | 0.00 | 0.00 | 73 | 1013.4 | |
| 20260509070017 | 2 | 0.0 | 0.0 | 0.00 | 0.00 | 0.00 | 72 | 1013.6 | |
| 20260509065020 | 2 | 0.0 | 0.0 | 0.00 | 0.00 | 0.00 | 72 | 1013.7 | |
| 20260509064023 | 2 | 0.0 | 0.0 | 0.00 | 0.00 | 0.00 | 72 | 1013.7 | |
| 20260509063027 | 2 | 0.0 | 0.0 | 0.00 | 0.00 | 0.00 | 71 | 1013.7 | |
| 20260509062030 | 2 | 0.0 | 0.0 | 0.00 | 0.00 | 0.00 | 70 | 1013.7 | |
| 20260509061015 | 3 | 0.0 | 0.0 | 0.00 | 0.00 | 0.00 | 71 | 1013.6 | |
| 20260509060018 | 3 | 0.0 | 0.0 | 0.00 | 0.00 | 0.00 | 70 | 1013.6 | |
| 20260509055022 | 3 | 0.0 | 0.0 | 0.00 | 0.00 | 0.00 | 70 | 1013.5 | |
| 20260509054019 | 3 | 0.0 | 0.0 | 0.00 | 0.00 | 0.00 | 69 | 1013.5 | |
| 20260509053017 | 3 | 0.0 | 0.0 | 0.00 | 0.00 | 0.00 | 69 | 1013.4 | |
| 20260509052032 | 3 | 0.0 | 0.0 | 0.00 | 0.00 | 0.00 | 69 | 1013.4 | |
| 20260509051017 | 3 | 0.0 | 0.0 | 0.00 | 0.00 | 0.00 | 69 | 1013.4 | |
| 20260509050020 | 3 | 0.0 | 0.0 | 0.00 | 0.00 | 0.00 | 68 | 1013.4 | |
| 20260509045024 | 3 | 0.0 | 0.0 | 0.00 | 0.00 | 0.00 | 68 | 1013.3 | |
| 20260509044027 | 4 | 0.0 | 0.0 | 0.00 | 0.00 | 0.00 | 66 | 1013.3 | |
| 20260509043030 | 4 | 0.0 | 0.0 | 0.00 | 0.00 | 0.00 | 65 | 1013.2 | |
| 20260509042136 | 5 | 0.0 | 0.0 | 0.00 | 0.00 | 0.00 | 65 | 1013.2 | |
| 20260509041019 | 5 | 0.0 | 0.0 | 0.00 | 0.00 | 0.00 | 64 | 1013.3 | |
| 20260509040022 | 5 | 0.0 | 0.0 | 0.00 | 0.00 | 0.00 | 62 | 1013.1 | |
| 20260509035025 | 5 | 0.0 | 0.0 | 0.00 | 0.00 | 0.00 | 61 | 1013.0 | |
| 20260509034028 | 6 | 0.0 | 0.0 | 0.00 | 0.00 | 0.00 | 61 | 1013.0 | |
| 20260509033032 | 6 | 0.0 | 0.0 | 0.00 | 0.00 | 0.00 | 59 | 1013.0 | |
| 20260509032017 | 6 | 0.0 | 0.0 | 0.00 | 0.00 | 0.00 | 59 | 1012.8 | |
| 20260509031020 | 6 | 0.0 | 0.0 | 0.00 | 0.00 | 0.00 | 58 | 1012.7 | |
| 20260509030023 | 7 | 0.0 | 0.0 | 0.00 | 0.00 | 0.00 | 57 | 1012.6 | |
| 20260509025026 | 7 | 0.0 | 0.0 | 0.00 | 0.00 | 0.00 | 56 | 1012.6 | |
| 20260509024030 | 7 | 0.0 | 0.0 | 0.00 | 0.00 | 0.00 | 55 | 1012.5 | |
| 20260509023015 | 8 | 0.0 | 0.0 | 0.00 | 0.00 | 0.00 | 53 | 1012.4 | |
| 20260509022018 | 8 | 0.0 | 0.0 | 0.00 | 0.00 | 0.00 | 52 | 1012.5 | |
| 20260509021022 | 8 | 0.0 | 0.0 | 0.00 | 0.00 | 0.00 | 49 | 1012.3 | |
| 20260509020019 | 9 | 0.0 | 0.0 | 0.00 | 0.00 | 0.00 | 48 | 1012.0 | |
| 20260509015017 | 10 | 0.0 | 0.0 | 0.00 | 0.00 | 0.00 | 47 | 1011.9 | |
| 20260509014032 | 10 | 0.0 | 0.0 | 0.00 | 0.00 | 0.00 | 44 | 1011.7 | |
| 20260509013057 | 10 | 0.0 | 0.0 | 0.00 | 0.00 | 0.00 | 43 | 1011.6 | |
| 20260509012020 | 10 | 248 | 1.6 | 4.8 | 0.00 | 0.00 | 0.00 | 43 | 1011.4 |
| 20260509011023 | 10 | 265 | 1.6 | 11.3 | 0.00 | 0.00 | 0.00 | 42 | 1011.0 |
| 20260509010027 | 11 | 337 | 0.0 | 3.2 | 0.00 | 0.00 | 0.00 | 42 | 1010.8 |
| 20260509005030 | 11 | 261 | 1.6 | 6.4 | 0.00 | 0.00 | 0.00 | 42 | 1010.7 |
| 20260509004015 | 11 | 23 | 0.0 | 4.8 | 0.00 | 0.00 | 0.00 | 40 | 1010.5 |
| 20260509003039 | 11 | 0.0 | 0.0 | 0.00 | 0.00 | 0.00 | 39 | 1010.4 | |
| 20260509002022 | 11 | 0.0 | 0.0 | 0.00 | 0.00 | 0.00 | 38 | 1010.2 | |
| 20260509001025 | 11 | 254 | 1.6 | 8.0 | 0.00 | 0.00 | 0.00 | 37 | 1010.0 |
| 20260509000028 | 12 | 203 | 0.0 | 1.6 | 0.00 | 0.00 | 0.00 | 37 | 1009.8 |
| 20260508235032 | 12 | 0.0 | 0.0 | 0.00 | 0.00 | 0.00 | 36 | 1009.5 | |
| 20260508234017 | 12 | 0.0 | 3.2 | 0.00 | 0.00 | 0.00 | 35 | 1009.4 | |
| 20260508233040 | 13 | 45 | 0.0 | 1.6 | 0.00 | 0.00 | 0.00 | 34 | 1009.4 |
| 20260508232024 | 13 | 247 | 3.2 | 8.0 | 0.00 | 0.00 | 0.00 | 33 | 1009.1 |
| 20260508231027 | 13 | 90 | 1.6 | 4.8 | 0.00 | 0.00 | 0.00 | 32 | 1008.9 |
| 20260508230111 | 14 | 203 | 1.6 | 9.7 | 0.00 | 0.00 | 0.00 | 30 | 1009.0 |
| 20260508225015 | 15 | 254 | 1.6 | 4.8 | 0.00 | 0.00 | 0.00 | 30 | 1008.8 |
| 20260508224018 | 15 | 202 | 1.6 | 9.7 | 0.00 | 0.00 | 0.00 | 29 | 1008.8 |
| 20260508223022 | 16 | 297 | 1.6 | 6.4 | 0.00 | 0.00 | 0.00 | 28 | 1008.8 |
| 20260508222019 | 15 | 254 | 4.8 | 9.7 | 0.00 | 0.00 | 0.00 | 28 | 1008.7 |
| 20260508221017 | 16 | 300 | 4.8 | 11.3 | 0.00 | 0.00 | 0.00 | 27 | 1008.6 |
| 20260508220052 | 16 | 318 | 3.2 | 6.4 | 0.00 | 0.00 | 0.00 | 27 | 1008.6 |
| 20260508215017 | 16 | 212 | 3.2 | 8.0 | 0.00 | 0.00 | 0.00 | 27 | 1008.5 |
| 20260508214020 | 16 | 4 | 4.8 | 11.3 | 0.00 | 0.00 | 0.00 | 26 | 1008.5 |
| 20260508213044 | 17 | 345 | 1.6 | 4.8 | 0.00 | 0.00 | 0.00 | 26 | 1008.4 |
| 20260508212027 | 15 | 290 | 1.6 | 9.7 | 0.00 | 0.00 | 0.00 | 28 | 1008.4 |
| 20260508210015 | 16 | 305 | 4.8 | 11.3 | 0.00 | 0.00 | 0.00 | 26 | 1008.3 |
| 20260508205019 | 15 | 239 | 1.6 | 6.4 | 0.00 | 0.00 | 0.00 | 27 | 1008.3 |
| 20260508204022 | 15 | 255 | 8.0 | 12.9 | 0.00 | 0.00 | 0.00 | 26 | 1008.1 |
| 20260508203025 | 17 | 285 | 6.4 | 14.5 | 0.00 | 0.00 | 0.00 | 25 | 1008.0 |
| 20260508202029 | 16 | 288 | 4.8 | 9.7 | 0.00 | 0.00 | 0.00 | 26 | 1008.1 |
| 20260508201032 | -17 | 225 | 6.4 | 6.4 | 0.00 | 0.00 | 0.00 | 1008.0 | |
| 20260508200017 | 16 | 224 | 6.4 | 14.5 | 0.00 | 0.00 | 0.00 | 26 | 1008.0 |
| 20260508195021 | 16 | 203 | 8.0 | 16.1 | 0.00 | 0.00 | 0.00 | 26 | 1008.0 |
| 20260508194024 | 17 | 273 | 9.7 | 14.5 | 0.00 | 0.00 | 0.00 | 25 | 1008.0 |
| 20260508193028 | 16 | 193 | 6.4 | 17.7 | 0.00 | 0.00 | 0.00 | 26 | 1008.1 |
| 20260508192030 | 15 | 239 | 4.8 | 9.7 | 0.00 | 0.00 | 0.00 | 27 | 1008.1 |
| 20260508191016 | 15 | 238 | 4.8 | 12.9 | 0.00 | 0.00 | 0.00 | 26 | 1008.1 |
| 20260508190019 | 16 | 240 | 6.4 | 14.5 | 0.00 | 0.00 | 0.00 | 26 | 1008.1 |
| 20260508185022 | 15 | 278 | 3.2 | 8.0 | 0.00 | 0.00 | 0.00 | 26 | 1008.1 |
| 20260508184019 | 15 | 303 | 4.8 | 11.3 | 0.00 | 0.00 | 0.00 | 27 | 1008.0 |
| 20260508183016 | 15 | 274 | 6.4 | 11.3 | 0.00 | 0.00 | 0.00 | 27 | 1007.9 |
| 20260508182032 | 15 | 262 | 4.8 | 11.3 | 0.00 | 0.00 | 0.00 | 29 | 1008.0 |
| 20260508181017 | 15 | 289 | 6.4 | 12.9 | 0.00 | 0.00 | 0.00 | 29 | 1008.1 |
| 20260508180020 | 15 | 345 | 4.8 | 12.9 | 0.00 | 0.00 | 0.00 | 30 | 1007.9 |
| 20260508175024 | 15 | 264 | 4.8 | 9.7 | 0.00 | 0.00 | 0.00 | 29 | 1008.1 |
| 20260508174027 | 15 | 188 | 6.4 | 9.7 | 0.00 | 0.00 | 0.00 | 31 | 1008.1 |
| 20260508173030 | 15 | 222 | 4.8 | 12.9 | 0.00 | 0.00 | 0.00 | 30 | 1008.1 |
| 20260508172015 | 16 | 305 | 4.8 | 12.9 | 0.00 | 0.00 | 0.00 | 30 | 1008.1 |
| 20260508171019 | 14 | 212 | 8.0 | 14.5 | 0.00 | 0.00 | 0.00 | 31 | 1008.0 |
| 20260508170022 | 15 | 237 | 4.8 | 12.9 | 0.00 | 0.00 | 0.00 | 29 | 1008.0 |
| 20260508165045 | 15 | 192 | 4.8 | 12.9 | 0.00 | 0.00 | 0.00 | 31 | 1007.9 |
| 20260508164029 | 15 | 217 | 6.4 | 12.9 | 0.00 | 0.00 | 0.00 | 30 | 1007.9 |
| 20260508163053 | 15 | 202 | 4.8 | 9.7 | 0.00 | 0.00 | 0.00 | 30 | 1008.0 |
| 20260508162037 | 15 | 277 | 4.8 | 9.7 | 0.00 | 0.00 | 0.00 | 28 | 1008.2 |
| 20260508161021 | 15 | 261 | 11.3 | 16.1 | 0.00 | 0.00 | 0.00 | 29 | 1008.4 |
| 20260508160024 | 15 | 348 | 4.8 | 11.3 | 0.00 | 0.00 | 0.00 | 28 | 1008.5 |
| 20260508155107 | 15 | 227 | 4.8 | 16.1 | 0.00 | 0.00 | 0.00 | 28 | 1008.5 |
| 20260508154030 | 15 | 296 | 4.8 | 14.5 | 0.00 | 0.00 | 0.00 | 31 | 1008.5 |
| 20260508153036 | 14 | 238 | 4.8 | 11.3 | 0.00 | 0.00 | 0.00 | 31 | 1008.5 |
| 20260508152019 | 13 | 333 | 3.2 | 9.7 | 0.00 | 0.00 | 0.00 | 32 | 1008.7 |
| 20260508151022 | 13 | 335 | 3.2 | 8.0 | 0.00 | 0.00 | 0.00 | 32 | 1008.6 |
| 20260508150019 | 13 | 284 | 8.0 | 12.9 | 0.00 | 0.00 | 0.00 | 32 | 1008.6 |
| 20260508145016 | 14 | 225 | 3.2 | 6.4 | 0.00 | 0.00 | 0.00 | 32 | 1008.7 |
| 20260508144032 | 14 | 251 | 8.0 | 16.1 | 0.00 | 0.00 | 0.00 | 31 | 1008.7 |
| 20260508143037 | 13 | 215 | 9.7 | 14.5 | 0.00 | 0.00 | 0.00 | 32 | 1008.7 |
| 20260508142020 | 14 | 253 | 9.7 | 17.7 | 0.00 | 0.00 | 0.00 | 32 | 1008.7 |
| 20260508141024 | 13 | 149 | 4.8 | 9.7 | 0.00 | 0.00 | 0.00 | 33 | 1008.9 |
| 20260508140027 | 13 | 141 | 6.4 | 20.9 | 0.00 | 0.00 | 0.00 | 34 | 1009.1 |
| 20260508135030 | 12 | 294 | 3.2 | 11.3 | 0.00 | 0.00 | 0.00 | 36 | 1009.1 |
| 20260508134015 | 12 | 274 | 6.4 | 11.3 | 0.00 | 0.00 | 0.00 | 37 | 1009.2 |
| 20260508133019 | 11 | 200 | 4.8 | 12.9 | 0.00 | 0.00 | 0.00 | 38 | 1009.1 |
| 20260508132022 | 11 | 275 | 4.8 | 11.3 | 0.00 | 0.00 | 0.00 | 40 | 1009.1 |
| 20260508131025 | 11 | 301 | 3.2 | 11.3 | 0.00 | 0.00 | 0.00 | 42 | 1009.2 |
| 20260508130029 | 10 | 342 | 3.2 | 8.0 | 0.00 | 0.00 | 0.00 | 42 | 1009.3 |
| 20260508125032 | 10 | 276 | 3.2 | 8.0 | 0.00 | 0.00 | 0.00 | 43 | 1009.3 |
| 20260508124017 | 10 | 170 | 3.2 | 16.1 | 0.00 | 0.00 | 0.00 | 44 | 1009.3 |
| 20260508123020 | 9 | 238 | 3.2 | 9.7 | 0.00 | 0.00 | 0.00 | 45 | 1009.4 |
| 20260508122023 | 9 | 338 | 1.6 | 8.0 | 0.00 | 0.00 | 0.00 | 47 | 1009.5 |